#timestamp,LO_Frequency,Hit,StdDev 
1629738015.5,286047009.2,N
1629738035.3,286047005.0,N
1629738055.2,286047005.3,N
1629738075.9,286047006.0,N
1629738095.7,286047005.7,N
1629738115.6,286047004.8,N
1629738135.4,286047005.2,N
1629738155.3,286047006.8,N
1629738175.1,286047004.5,N
1629738176.0,286047004.5,N
1629738195.8,286047005.9,N
1629738215.7,286047004.7,N
1629738235.5,286047005.2,N
1629738255.3,286047006.0,Y
1629738275.2,286046997.2,P
1629738295.0,286046999.0,N
1629738295.9,286046999.0,N
1629738315.8,286047001.0,N
1629738335.6,286047000.8,N
1629738355.4,286046996.5,N
1629738375.3,286046998.0,N
1629738395.1,286046998.0,N
1629738415.8,286046995.1,N
1629738435.7,286046997.2,N
1629738455.5,286046994.9,N
1629738475.4,286046998.0,N
1629738495.2,286046996.2,N
1629738515.0,286046995.9,N
1629738515.9,286046995.9,N
1629738535.8,286046996.0,N
1629738555.6,286046996.1,N
1629738575.4,286046996.2,N
1629738595.3,286046993.6,N
1629738615.1,286046991.7,N
1629738635.9,286046994.3,N
1629738655.7,286046992.4,N
1629738675.5,286046991.9,N
1629738695.4,286046992.7,N
1629738715.2,286046993.0,N
1629738735.0,286046991.3,N
1629738735.9,286046991.3,N
1629738755.8,286046988.7,Y
1629738775.6,286046994.5,P
1629738795.5,286046992.0,P
1629738815.3,286046992.0,P
1629738835.1,286046994.6,Y
1629738855.9,286046997.0,P
1629738875.7,286046997.8,N
1629738895.5,286046998.0,N
1629738915.4,286046997.6,N
1629738935.2,286046997.9,N
1629738955.1,286046995.0,Y
1629738956.0,286046995.0,P
1629738975.8,286046998.5,N
1629738995.6,286046999.5,N
1629739015.5,286046996.5,N
1629739035.3,286046998.5,N
1629739055.2,286046999.1,N
1629739075.9,286046998.9,N
1629739095.7,286046999.2,N
1629739115.6,286046999.1,N
1629739135.4,286046996.6,N
1629739155.2,286046996.5,N
1629739175.1,286046999.6,N
1629739176.0,286046999.6,N
1629739195.8,286046997.0,N
1629739215.7,286046997.1,N
1629739235.5,286046997.6,N
1629739255.3,286046998.0,N
1629739275.2,286046995.4,Y
1629739295.0,286046999.6,P
1629739295.9,286046999.6,N
1629739315.8,286046997.5,P
1629739335.6,286046996.8,Y
1629739355.4,286046999.2,P
1629739375.3,286046998.9,P
1629739395.1,286046996.5,P
1629739415.8,286046998.8,N
1629739435.7,286046998.7,N
1629739455.5,286046998.2,N
1629739475.4,286046998.9,N
1629739495.2,286046999.2,N
1629739515.0,286046998.7,N
1629739515.9,286046998.7,N
1629739535.8,286047001.2,N
1629739555.6,286047000.7,N
1629739575.4,286046998.5,N
1629739595.3,286047001.2,N
1629739615.1,286046999.9,N
1629739635.9,286047000.0,N
1629739655.7,286047000.0,N
1629739675.5,286047000.4,N
1629739695.4,286047000.4,N
1629739715.2,286046999.9,N
1629739735.0,286047000.5,N
1629739735.9,286047000.5,N
1629739755.8,286047000.9,N
1629739775.6,286047000.5,N
1629739795.5,286047000.2,N
1629739815.3,286047002.4,N
1629739835.1,286047000.3,N
1629739855.9,286047000.4,N
1629739875.7,286047001.0,N
1629739895.6,286047000.7,N
1629739915.4,286046998.2,N
1629739935.2,286047001.0,N
1629739955.1,286046998.2,N
1629739956.0,286046998.2,N
1629739975.8,286046998.8,N
1629739995.6,286046999.1,N
1629740015.5,286046996.5,Y
1629740035.3,286046996.5,P
1629740055.2,286046996.9,N
1629740075.9,286046999.3,N
1629740095.7,286046998.6,N
1629740115.6,286046998.1,N
1629740135.4,286046998.2,N
1629740155.2,286047001.0,N
1629740175.1,286047000.1,N
1629740176.0,286047000.1,N
1629740195.8,286047001.2,N
1629740215.7,286047000.8,N
1629740235.5,286047000.7,N
1629740255.3,286047000.2,N
1629740275.2,286047000.0,N
1629740295.0,286046998.9,N
1629740295.9,286046998.9,N
1629740315.8,286046999.2,N
1629740335.6,286046997.5,N
1629740355.4,286046996.1,N
1629740375.3,286046997.5,N
1629740395.1,286046996.8,N
1629740415.8,286046995.1,Y
1629740435.7,286046997.8,P
1629740455.5,286047011.9,P
1629740475.4,286046997.1,N
1629740495.2,286046999.1,N
1629740515.0,286046999.6,N
1629740515.9,286046999.6,N
1629740535.8,286047000.7,N
1629740555.6,286046999.0,N
1629740575.4,286046996.5,N
1629740595.3,286046998.5,N
1629740615.1,286047001.2,N
1629740635.9,286046999.3,N
1629740655.7,286046998.1,N
1629740675.5,286047001.2,N
1629740695.4,286046998.2,N
1629740715.2,286046999.8,N
1629740735.0,286047000.2,N
1629740735.9,286047000.2,N
1629740755.8,286047000.7,N
1629740775.6,286047000.7,N
1629740795.5,286047000.8,N
1629740815.3,286047000.4,N
1629740835.1,286047000.7,N
1629740855.9,286046998.4,N
1629740875.7,286046998.4,N
1629740895.5,286046998.6,N
1629740915.4,286046999.3,N
1629740935.2,286047000.9,N
1629740955.0,286047000.6,N
1629740956.0,286047000.6,N
1629740975.8,286047001.0,N
1629740995.6,286046999.3,N
1629741015.5,286046998.1,N
1629741035.3,286046998.1,N
1629741055.1,286047000.6,N
1629741075.9,286047000.6,N
1629741095.7,286047001.0,N
1629741115.6,286046998.1,N
1629741135.4,286046998.4,N
1629741155.2,286046998.9,N
1629741175.1,286047000.4,N
1629741176.0,286047000.4,N
1629741195.8,286047001.0,N
1629741215.6,286047000.8,N
1629741235.5,286047000.8,N
1629741255.3,286047002.2,N
1629741275.2,286047004.3,Y
1629741295.9,286047001.6,P
1629741315.7,286047001.4,N
1629741335.6,286047004.2,P
1629741355.4,286047001.6,N
1629741375.2,286047002.2,N
1629741395.1,286047001.3,N
1629741396.0,286047001.3,N
1629741415.8,286046999.7,N
1629741435.7,286047000.2,N
1629741455.5,286047000.0,N
1629741475.3,286047001.1,N
1629741495.2,286046996.6,N
1629741515.0,286046999.5,N
1629741515.9,286046999.5,N
1629741535.7,286046998.8,N
1629741555.6,286046999.1,N
1629741575.4,286046999.1,N
1629741595.3,286046998.6,N
